• In Norway
  • List of Countries
  • For 7 days
  • Water Temperature
  • Satellite Maps
  • Weather Map
  • Weather Widgets
  • user-avatar
    Login

    Hourly Weather Wierzchecino

    Today, 24 October, Wednesday

    Time Temperature Precipitation Wind Pressure Humidity
    00:00 +8°C° 0.2 mm 11 mps 747 mmHg 69%
    01:00 +7°C° 0.2 mm 10 mps 747 mmHg 67%
    02:00 +7°C° 0.1 mm 10 mps 748 mmHg 65%
    03:00 +6°C° 0.1 mm 9 mps 748 mmHg 63%
    04:00 +6°C° 0.1 mm 9 mps 749 mmHg 61%
    05:00 +6°C° 0.1 mm 8 mps 750 mmHg 61%
    06:00 +5°C° 0.1 mm 8 mps 750 mmHg 61%
    07:00 +5°C° 0.1 mm 8 mps 751 mmHg 61%
    08:00 +6°C° 0.1 mm 8 mps 752 mmHg 57%
    09:00 +7°C° 0.1 mm 9 mps 752 mmHg 54%
    10:00 +7°C° 0.1 mm 9 mps 753 mmHg 50%
    11:00 +7°C° 0 mm 9 mps 754 mmHg 48%
    12:00 +8°C° 0 mm 9 mps 754 mmHg 46%
    13:00 +8°C° 0 mm 9 mps 755 mmHg 44%
    14:00 +9°C° 0 mm 8 mps 755 mmHg 47%
    15:00 +8°C° 0 mm 7 mps 755 mmHg 50%
    16:00 +8°C° 0 mm 6 mps 756 mmHg 53%
    17:00 +8°C° 0 mm 6 mps 756 mmHg 57%
    18:00 +7°C° 0 mm 6 mps 756 mmHg 60%
    19:00 +7°C° 0 mm 5 mps 757 mmHg 64%
    20:00 +6°C° 0 mm 5 mps 756 mmHg 67%
    21:00 +6°C° 0 mm 5 mps 756 mmHg 69%
    22:00 +6°C° 0 mm 4 mps 756 mmHg 72%
    23:00 +6°C° 0.1 mm 5 mps 756 mmHg 76%

    Tomorrow, 25 October, Thursday

    Time Temperature Precipitation Wind Pressure Humidity
    00:00 +6°C° 0.1 mm 5 mps 755 mmHg 79%
    01:00 +6°C° 0.1 mm 5 mps 754 mmHg 83%
    02:00 +7°C° 0.9 mm 6 mps 754 mmHg 86%
    03:00 +8°C° 0.9 mm 7 mps 753 mmHg 89%
    04:00 +9°C° 0.9 mm 7 mps 752 mmHg 92%
    05:00 +9°C° 0.5 mm 8 mps 751 mmHg 90%
    06:00 +10°C° 0.5 mm 9 mps 751 mmHg 88%
    07:00 +9°C° 0.5 mm 10 mps 750 mmHg 87%
    08:00 +11°C° 0.3 mm 10 mps 750 mmHg 85%
    09:00 +11°C° 0.3 mm 10 mps 750 mmHg 83%
    10:00 +11°C° 0.3 mm 10 mps 750 mmHg 81%
    11:00 +11°C° 0.1 mm 10 mps 750 mmHg 78%
    12:00 +9°C° 0.1 mm 10 mps 750 mmHg 75%
    13:00 +9°C° 0.1 mm 10 mps 750 mmHg 71%
    14:00 +10°C° 0.1 mm 9 mps 750 mmHg 71%
    15:00 +8°C° 0.1 mm 9 mps 750 mmHg 72%
    16:00 +9°C° 0.1 mm 8 mps 751 mmHg 72%
    17:00 +9°C° 0.1 mm 8 mps 751 mmHg 72%
    18:00 +9°C° 0.1 mm 8 mps 751 mmHg 73%
    19:00 +9°C° 0.1 mm 7 mps 751 mmHg 74%
    20:00 +8°C° 0.1 mm 7 mps 751 mmHg 74%
    21:00 +8°C° 0.1 mm 7 mps 752 mmHg 75%
    22:00 +8°C° 0.1 mm 7 mps 752 mmHg 76%
    23:00 +8°C° 0.1 mm 6 mps 751 mmHg 76%

    Day after tomorrow, 26 October, Friday

    Time Temperature Precipitation Wind Pressure Humidity
    00:00 +8°C° 0.1 mm 6 mps 751 mmHg 76%
    01:00 +8°C° 0.1 mm 6 mps 751 mmHg 77%
    02:00 +7°C° 0.1 mm 6 mps 751 mmHg 78%
    03:00 +7°C° 0.1 mm 6 mps 751 mmHg 79%
    04:00 +7°C° 0.1 mm 6 mps 751 mmHg 80%
    05:00 +7°C° 0 mm 5 mps 750 mmHg 82%
    06:00 +6°C° 0 mm 5 mps 750 mmHg 84%
    07:00 +6°C° 0 mm 5 mps 749 mmHg 85%
    08:00 +7°C° 0.5 mm 5 mps 749 mmHg 86%
    09:00 +7°C° 0.5 mm 6 mps 748 mmHg 87%
    10:00 +8°C° 0.5 mm 6 mps 748 mmHg 88%
    11:00 +8°C° 0.5 mm 7 mps 747 mmHg 86%
    12:00 +9°C° 0.5 mm 8 mps 746 mmHg 84%
    13:00 +10°C° 0.5 mm 8 mps 746 mmHg 82%
    14:00 +10°C° 0.2 mm 8 mps 745 mmHg 81%
    15:00 +10°C° 0.2 mm 8 mps 745 mmHg 81%
    16:00 +10°C° 0.2 mm 8 mps 744 mmHg 80%
    17:00 +9°C° 0.9 mm 7 mps 744 mmHg 82%
    18:00 +9°C° 0.9 mm 7 mps 744 mmHg 84%
    19:00 +8°C° 0.9 mm 6 mps 744 mmHg 86%
    20:00 +6°C° 0.6 mm 7 mps 744 mmHg 84%
    21:00 +6°C° 0.6 mm 7 mps 744 mmHg 82%
    22:00 +5°C° 0.6 mm 7 mps 744 mmHg 80%
    23:00 +5°C° 0.7 mm 8 mps 744 mmHg 79%

    27 October, Saturday

    Time Temperature Precipitation Wind Pressure Humidity
    00:00 +5°C° 0.7 mm 8 mps 744 mmHg 78%
    01:00 +5°C° 0.7 mm 8 mps 745 mmHg 78%
    02:00 +5°C° 0.1 mm 8 mps 745 mmHg 78%
    03:00 +4°C° 0.1 mm 7 mps 746 mmHg 79%
    04:00 +4°C° 0.1 mm 7 mps 747 mmHg 80%
    05:00 +4°C° 0.2 mm 7 mps 747 mmHg 80%
    06:00 +4°C° 0.2 mm 6 mps 748 mmHg 81%
    07:00 +3°C° 0.2 mm 6 mps 749 mmHg 81%
    08:00 +5°C° 0 mm 5 mps 750 mmHg 76%
    09:00 +6°C° 0 mm 5 mps 750 mmHg 71%
    10:00 +6°C° 0 mm 5 mps 751 mmHg 66%
    11:00 +6°C° 0 mm 5 mps 752 mmHg 63%
    12:00 +7°C° 0 mm 4 mps 752 mmHg 60%
    13:00 +7°C° 0 mm 4 mps 753 mmHg 57%
    14:00 +8°C° 0 mm 3 mps 753 mmHg 59%
    15:00 +7°C° 0 mm 3 mps 753 mmHg 61%
    16:00 +7°C° 0 mm 2 mps 754 mmHg 63%
    17:00 +6°C° 0 mm 2 mps 754 mmHg 64%
    18:00 +7°C° 0 mm 1 mps 755 mmHg 66%
    19:00 +6°C° 0 mm 1 mps 755 mmHg 68%
    20:00 +6°C° 0 mm 1 mps 756 mmHg 69%
    21:00 +5°C° 0 mm 1 mps 756 mmHg 70%
    22:00 +5°C° 0 mm 1 mps 757 mmHg 72%
    23:00 +5°C° 0 mm 1 mps 757 mmHg 73%

    28 October, Sunday

    Time Temperature Precipitation Wind Pressure Humidity
    00:00 +5°C° 0 mm 1 mps 757 mmHg 74%
    01:00 +4°C° 0 mm 1 mps 757 mmHg 75%
    02:00 +4°C° 0 mm 1 mps 758 mmHg 75%
    03:00 +4°C° 0 mm 1 mps 758 mmHg 75%
    04:00 +3°C° 0 mm 2 mps 758 mmHg 76%
    05:00 +3°C° 0 mm 2 mps 758 mmHg 76%
    06:00 +3°C° 0 mm 2 mps 759 mmHg 77%
    07:00 +3°C° 0 mm 2 mps 759 mmHg 77%
    08:00 +4°C° 0 mm 2 mps 760 mmHg 72%
    09:00 +4°C° 0 mm 3 mps 760 mmHg 67%
    10:00 +5°C° 0 mm 4 mps 760 mmHg 63%
    11:00 +6°C° 0 mm 4 mps 760 mmHg 61%
    12:00 +6°C° 0 mm 4 mps 760 mmHg 58%
    13:00 +7°C° 0 mm 5 mps 760 mmHg 56%
    14:00 +6°C° 0 mm 5 mps 760 mmHg 59%
    15:00 +6°C° 0 mm 5 mps 760 mmHg 62%
    16:00 +6°C° 0 mm 5 mps 760 mmHg 64%
    17:00 +5°C° 0 mm 5 mps 760 mmHg 65%
    18:00 +4°C° 0 mm 6 mps 760 mmHg 66%
    19:00 +4°C° 0 mm 6 mps 760 mmHg 66%
    20:00 +4°C° 0 mm 6 mps 760 mmHg 66%
    21:00 +4°C° 0 mm 7 mps 760 mmHg 67%
    22:00 +4°C° 0 mm 7 mps 760 mmHg 67%
    23:00 +4°C° 0.1 mm 7 mps 760 mmHg 67%

    29 October, Monday

    Time Temperature Precipitation Wind Pressure Humidity
    00:00 +4°C° 0.1 mm 6 mps 760 mmHg 67%
    01:00 +4°C° 0.1 mm 6 mps 759 mmHg 67%
    02:00 +4°C° 0 mm 7 mps 759 mmHg 65%
    03:00 +4°C° 0 mm 7 mps 758 mmHg 62%
    04:00 +2°C° 0 mm 8 mps 758 mmHg 59%
    05:00 +2°C° 0.2 mm 8 mps 757 mmHg 60%
    06:00 +2°C° 0.2 mm 9 mps 757 mmHg 62%
    07:00 +2°C° 0.2 mm 9 mps 756 mmHg 63%
    08:00 +2°C° 0.6 mm 10 mps 756 mmHg 66%
    09:00 +2°C° 0.6 mm 10 mps 756 mmHg 68%
    10:00 +2°C° 0.6 mm 10 mps 756 mmHg 71%
    11:00 +2°C° 0.4 mm 10 mps 755 mmHg 73%
    12:00 +2°C° 0.4 mm 11 mps 754 mmHg 74%
    13:00 +2°C° 0.4 mm 11 mps 754 mmHg 76%
    14:00 +2°C° 0.2 mm 11 mps 753 mmHg 77%
    15:00 +2°C° 0.2 mm 10 mps 753 mmHg 78%
    16:00 +2°C° 0.2 mm 10 mps 752 mmHg 79%
    17:00 +2°C° 0.1 mm 10 mps 752 mmHg 80%
    18:00 +1°C° 0.1 mm 10 mps 752 mmHg 81%
    19:00 +1°C° 0.1 mm 10 mps 751 mmHg 82%
    20:00 +1°C° 0.4 mm 9 mps 751 mmHg 83%
    21:00 +1°C° 0.4 mm 9 mps 751 mmHg 84%
    22:00 +1°C° 0.4 mm 9 mps 750 mmHg 85%
    23:00 +1°C° 0.2 mm 9 mps 750 mmHg 85%

    30 October, Tuesday

    Time Temperature Precipitation Wind Pressure Humidity
    00:00 +1°C° 0.2 mm 8 mps 749 mmHg 86%
    01:00 +1°C° 0.2 mm 8 mps 749 mmHg 87%
    02:00 +2°C° 0.5 mm 8 mps 748 mmHg 88%
    03:00 +2°C° 0.5 mm 8 mps 748 mmHg 88%
    04:00 +2°C° 0.5 mm 8 mps 747 mmHg 89%
    05:00 +4°C° 0.6 mm 8 mps 746 mmHg 89%
    06:00 +3°C° 0.6 mm 9 mps 746 mmHg 90%
    07:00 +5°C° 0.6 mm 9 mps 745 mmHg 90%
    08:00 +6°C° 1.2 mm 9 mps 745 mmHg 89%
    09:00 +7°C° 1.2 mm 9 mps 744 mmHg 89%
    10:00 +8°C° 1.2 mm 10 mps 744 mmHg 88%
    11:00 +8°C° 0.2 mm 9 mps 744 mmHg 88%
    12:00 +10°C° 0.2 mm 8 mps 744 mmHg 87%
    13:00 +10°C° 0.2 mm 6 mps 744 mmHg 86%
    14:00 +9°C° 0 mm 6 mps 745 mmHg 85%
    15:00 +8°C° 0 mm 6 mps 746 mmHg 84%
    16:00 +8°C° 0 mm 5 mps 747 mmHg 82%
    17:00 +7°C° 0 mm 5 mps 748 mmHg 82%
    18:00 +6°C° 0 mm 5 mps 748 mmHg 81%
    19:00 +6°C° 0 mm 5 mps 749 mmHg 81%
    20:00 +5°C° 0 mm 5 mps 750 mmHg 81%
    21:00 +5°C° 0 mm 4 mps 750 mmHg 81%
    22:00 +5°C° 0 mm 4 mps 751 mmHg 81%
    23:00 +5°C° 0 mm 4 mps 751 mmHg 82%
    Show more